Location: Banff
(51.1667°N, 115.5667°W)
Time: 12:57:04
(UTC+00:00)

Tiros 1 - Pass Details

Date: 30 July 2021
Orbit: 630 x 663 km, 48.4° (Epoch: 27 September)

Event Time Altitude Azimuth Distance (km) Brightness Sun altitude
Rises 04:17:40 0° 249° (WSW) 2,973 11.0 -6.5°
Reaches altitude 10° 04:20:03 10° 245° (WSW) 2,058 10.1 -6.8°
Maximum altitude 04:24:40 55° 168° (SSE) 780 7.3 -7.3°
Drops below altitude 10° 04:29:16 10° 91° (E) 2,040 9.3 -7.9°
Enters shadow 04:31:35 - 87° (E) 2,931 10.1 -8.1°
